SES-11 (ECHOSTAR 105) (42967 NORAD) Tracking and Keplerian Element Data

This shows tracking and keplerian element data for the satellite.

Feedback or suggestion? Click here.




ElementValue
Catalog42967
NameSES-11 (ECHOSTAR 105)
Epoch Orbit1005
Epoch Day189.848773
Epoch Year2020
RAAN85.4155
Inclination0.0124
Eccentricity0.0002582
Argument of Perigee27.6165
Mean Anonmoly13.8211
Mean Motion1.00272073
Decay Rate-1E-06
L11 42967U 17063A 20189.84877300 -.00000100 00000-0 00000-0 0 9994
L22 42967 0.0124 85.4155 0002582 27.6165 13.8211 1.00272073 10053

Live tracking and technical data element details for SES-11 (ECHOSTAR 105) (NORAD 42967). SES-11 (ECHOSTAR 105) can be tracked NOW for your location showing map with azimuth and elevation plus other details from your city location.

Track the satellite on the map from your city or location and see movement details for azimuth, elevation, latitude, longitude, range, height, and movement on the map or in text.







IsCatalogInMostPopularTable: catalog: 42967, numindb: 501
Update: records affected: 1



GetName: 42967 SES-11 (ECHOSTAR 105)

Hit Count: updated at: Wed, 08 Jul 2020 22:08:34 GMT